Time,TemperatureF,DewpointF,PressureIn,WindDirection,WindDirectionDegrees,WindSpeedMPH,WindSpeedGustMPH,Humidity,HourlyPrecipIn,Conditions,Clouds,dailyrainin,SoftwareType,DateUTC
2013-03-14 00:00:00,45.0,21.5,30.19,NW,309,11.0,17.0,39,0.00,,,0.00,WeatherCatV1.11B39,2013-03-14 04:00:00,
2013-03-14 00:01:00,45.0,21.5,30.19,NW,315,4.0,17.0,39,0.00,,,0.00,WeatherCatV1.11B39,2013-03-14 04:01:00,
2013-03-14 00:06:00,44.9,21.5,30.19,NNW,331,7.0,13.0,39,0.00,,,0.00,WeatherCatV1.11B39,2013-03-14 04:06:00,
2013-03-14 00:11:00,44.7,21.3,30.19,NW,325,8.0,12.0,39,0.00,,,0.00,WeatherCatV1.11B39,2013-03-14 04:11:00,
2013-03-14 00:16:00,44.6,21.2,30.19,NNW,333,5.0,9.0,39,0.00,,,0.00,WeatherCatV1.11B39,2013-03-14 04:16:00,
2013-03-14 00:21:00,44.4,21.6,30.19,NNW,331,8.0,8.0,40,0.00,,,0.00,WeatherCatV1.11B39,2013-03-14 04:21:00,
2013-03-14 00:26:00,44.1,21.3,30.19,NNW,329,4.0,8.0,40,0.00,,,0.00,WeatherCatV1.11B39,2013-03-14 04:26:00,
2013-03-14 00:31:00,43.9,21.2,30.19,West,265,0.0,9.0,40,0.00,,,0.00,WeatherCatV1.11B39,2013-03-14 04:31:00,
2013-03-14 00:36:00,43.6,21.5,30.19,NNW,330,3.0,5.0,41,0.00,,,0.00,WeatherCatV1.11B39,2013-03-14 04:36:00,
2013-03-14 00:41:00,43.3,21.8,30.19,NW,305,0.0,12.0,42,0.00,,,0.00,WeatherCatV1.11B39,2013-03-14 04:41:00,
2013-03-14 00:46:00,43.2,21.7,30.18,NW,319,6.0,9.0,42,0.00,,,0.00,WeatherCatV1.11B39,2013-03-14 04:46:00,
2013-03-14 00:51:00,43.1,21.0,30.19,NNW,337,5.0,8.0,41,0.00,,,0.00,WeatherCatV1.11B39,2013-03-14 04:51:00,
2013-03-14 00:56:00,43.0,20.9,30.19,North,355,5.0,10.0,41,0.00,,,0.00,WeatherCatV1.11B39,2013-03-14 04:56:00,
2013-03-14 01:01:00,42.9,21.4,30.19,NNW,342,4.0,10.0,42,0.00,,,0.00,WeatherCatV1.11B39,2013-03-14 05:01:00,
2013-03-14 01:06:00,42.7,21.2,30.19,NW,319,6.0,12.0,42,0.00,,,0.00,WeatherCatV1.11B39,2013-03-14 05:06:00,
2013-03-14 01:11:00,42.7,21.2,30.19,NNW,340,7.0,13.0,42,0.00,,,0.00,WeatherCatV1.11B39,2013-03-14 05:11:00,
2013-03-14 01:16:00,42.5,21.0,30.19,NW,323,6.0,10.0,42,0.00,,,0.00,WeatherCatV1.11B39,2013-03-14 05:16:00,
2013-03-14 01:21:00,42.4,21.0,30.19,NNW,331,4.0,8.0,42,0.00,,,0.00,WeatherCatV1.11B39,2013-03-14 05:21:00,
2013-03-14 01:26:00,42.2,21.3,30.19,NNW,344,4.0,11.0,43,0.00,,,0.00,WeatherCatV1.11B39,2013-03-14 05:26:00,
2013-03-14 01:31:00,41.9,21.1,30.19,NNW,348,6.0,8.0,43,0.00,,,0.00,WeatherCatV1.11B39,2013-03-14 05:31:00,
2013-03-14 01:37:00,41.7,20.9,30.19,NW,325,7.0,16.0,43,0.00,,,0.00,WeatherCatV1.11B39,2013-03-14 05:37:00,
2013-03-14 01:42:00,41.6,20.8,30.19,NW,325,7.0,10.0,43,0.00,,,0.00,WeatherCatV1.11B39,2013-03-14 05:42:00,
2013-03-14 01:47:00,41.6,20.8,30.19,NW,320,3.0,5.0,43,0.00,,,0.00,WeatherCatV1.11B39,2013-03-14 05:47:00,
2013-03-14 01:52:00,41.4,20.6,30.20,North,11,9.0,10.0,43,0.00,,,0.00,WeatherCatV1.11B39,2013-03-14 05:52:00,
2013-03-14 01:57:00,41.2,20.4,30.20,NNE,28,3.0,10.0,43,0.00,,,0.00,WeatherCatV1.11B39,2013-03-14 05:57:00,
2013-03-14 02:02:00,41.1,20.9,30.20,North,355,3.0,7.0,44,0.00,,,0.00,WeatherCatV1.11B39,2013-03-14 06:02:00,
2013-03-14 02:07:00,40.9,20.7,30.20,NNW,336,5.0,11.0,44,0.00,,,0.00,WeatherCatV1.11B39,2013-03-14 06:07:00,
2013-03-14 02:12:00,40.9,20.1,30.21,NW,319,3.0,8.0,43,0.00,,,0.00,WeatherCatV1.11B39,2013-03-14 06:12:00,
2013-03-14 02:17:00,40.7,20.5,30.20,NNW,333,1.0,6.0,44,0.00,,,0.00,WeatherCatV1.11B39,2013-03-14 06:17:00,
2013-03-14 02:22:00,40.4,20.8,30.21,NNE,32,2.0,7.0,45,0.00,,,0.00,WeatherCatV1.11B39,2013-03-14 06:22:00,
2013-03-14 02:27:00,40.2,20.6,30.21,NNW,327,5.0,9.0,45,0.00,,,0.00,WeatherCatV1.11B39,2013-03-14 06:27:00,
2013-03-14 02:32:00,40.1,20.5,30.21,NW,316,7.0,7.0,45,0.00,,,0.00,WeatherCatV1.11B39,2013-03-14 06:32:00,
2013-03-14 02:37:00,39.9,20.8,30.20,NW,306,0.0,8.0,46,0.00,,,0.00,WeatherCatV1.11B39,2013-03-14 06:37:00,
2013-03-14 02:42:00,39.8,20.7,30.21,NW,326,8.0,8.0,46,0.00,,,0.00,WeatherCatV1.11B39,2013-03-14 06:42:00,
2013-03-14 02:47:00,39.6,20.5,30.21,NW,317,2.0,6.0,46,0.00,,,0.00,WeatherCatV1.11B39,2013-03-14 06:47:00,
2013-03-14 02:52:00,39.5,20.5,30.21,WNW,292,6.0,12.0,46,0.00,,,0.00,WeatherCatV1.11B39,2013-03-14 06:52:00,
2013-03-14 02:57:00,39.4,20.9,30.21,WNW,301,4.0,6.0,47,0.00,,,0.00,WeatherCatV1.11B39,2013-03-14 06:57:00,
2013-03-14 03:02:00,39.2,20.7,30.21,NNW,344,1.0,7.0,47,0.00,,,0.00,WeatherCatV1.11B39,2013-03-14 07:02:00,
2013-03-14 03:07:00,39.2,20.7,30.21,NNW,344,4.0,9.0,47,0.00,,,0.00,WeatherCatV1.11B39,2013-03-14 07:07:00,
2013-03-14 03:12:00,39.1,20.6,30.21,NNW,336,4.0,7.0,47,0.00,,,0.00,WeatherCatV1.11B39,2013-03-14 07:12:00,
2013-03-14 03:17:00,38.9,20.4,30.21,NNW,343,2.0,8.0,47,0.00,,,0.00,WeatherCatV1.11B39,2013-03-14 07:17:00,
2013-03-14 03:22:00,38.7,21.2,30.22,NW,310,5.0,6.0,49,0.00,,,0.00,WeatherCatV1.11B39,2013-03-14 07:22:00,
2013-03-14 03:27:00,38.5,20.5,30.22,NNW,331,8.0,8.0,48,0.00,,,0.00,WeatherCatV1.11B39,2013-03-14 07:27:00,
2013-03-14 03:32:00,38.4,20.4,30.22,WNW,300,1.0,4.0,48,0.00,,,0.00,WeatherCatV1.11B39,2013-03-14 07:32:00,
2013-03-14 03:37:00,38.3,20.4,30.22,NW,312,0.0,4.0,48,0.00,,,0.00,WeatherCatV1.11B39,2013-03-14 07:37:00,
2013-03-14 03:42:00,38.1,20.6,30.22,NW,320,0.0,10.0,49,0.00,,,0.00,WeatherCatV1.11B39,2013-03-14 07:42:00,
2013-03-14 03:47:00,38.0,20.1,30.22,NNW,329,3.0,6.0,48,0.00,,,0.00,WeatherCatV1.11B39,2013-03-14 07:47:00,
2013-03-14 03:52:00,37.8,20.8,30.22,NW,323,0.0,4.0,50,0.00,,,0.00,WeatherCatV1.11B39,2013-03-14 07:52:00,
2013-03-14 03:57:00,37.7,20.3,30.22,NW,317,4.0,7.0,49,0.00,,,0.00,WeatherCatV1.11B39,2013-03-14 07:57:00,
2013-03-14 04:02:00,37.5,21.0,30.22,NW,323,4.0,5.0,51,0.00,,,0.00,WeatherCatV1.11B39,2013-03-14 08:02:00,
2013-03-14 04:07:00,37.3,20.9,30.22,NW,315,6.0,7.0,51,0.00,,,0.00,WeatherCatV1.11B39,2013-03-14 08:07:00,
2013-03-14 04:12:00,37.1,20.7,30.22,NW,322,3.0,5.0,51,0.00,,,0.00,WeatherCatV1.11B39,2013-03-14 08:12:00,
2013-03-14 04:17:00,36.8,20.8,30.22,NW,314,7.0,7.0,52,0.00,,,0.00,WeatherCatV1.11B39,2013-03-14 08:17:00,
2013-03-14 04:22:00,36.6,21.5,30.22,NNW,333,3.0,6.0,54,0.00,,,0.00,WeatherCatV1.11B39,2013-03-14 08:22:00,
2013-03-14 04:27:00,36.3,20.8,30.22,NW,315,1.0,5.0,53,0.00,,,0.00,WeatherCatV1.11B39,2013-03-14 08:27:00,
2013-03-14 04:32:00,36.2,20.7,30.22,NW,317,5.0,6.0,53,0.00,,,0.00,WeatherCatV1.11B39,2013-03-14 08:32:00,
2013-03-14 04:37:00,36.4,20.9,30.22,NW,312,3.0,7.0,53,0.00,,,0.00,WeatherCatV1.11B39,2013-03-14 08:37:00,
2013-03-14 04:42:00,36.4,20.9,30.23,NW,323,3.0,12.0,53,0.00,,,0.00,WeatherCatV1.11B39,2013-03-14 08:42:00,
2013-03-14 04:47:00,36.4,20.9,30.23,NW,311,6.0,10.0,53,0.00,,,0.00,WeatherCatV1.11B39,2013-03-14 08:47:00,
2013-03-14 04:52:00,36.3,20.8,30.23,WNW,291,0.0,7.0,53,0.00,,,0.00,WeatherCatV1.11B39,2013-03-14 08:52:00,
2013-03-14 04:57:00,36.1,21.1,30.23,NNW,327,0.0,5.0,54,0.00,,,0.00,WeatherCatV1.11B39,2013-03-14 08:57:00,
2013-03-14 05:02:00,35.9,20.9,30.23,NW,316,4.0,6.0,54,0.00,,,0.00,WeatherCatV1.11B39,2013-03-14 09:02:00,
2013-03-14 05:07:00,35.7,21.1,30.23,NNW,336,0.0,8.0,55,0.00,,,0.00,WeatherCatV1.11B39,2013-03-14 09:07:00,
2013-03-14 05:12:00,35.5,21.0,30.23,NNW,333,5.0,8.0,55,0.00,,,0.00,WeatherCatV1.11B39,2013-03-14 09:12:00,
2013-03-14 05:18:00,35.5,21.0,30.23,NW,313,3.0,8.0,55,0.00,,,0.00,WeatherCatV1.11B39,2013-03-14 09:18:00,
2013-03-14 05:23:00,35.4,20.9,30.23,NW,319,3.0,10.0,55,0.00,,,0.00,WeatherCatV1.11B39,2013-03-14 09:23:00,
2013-03-14 05:28:00,35.5,21.0,30.24,WNW,302,3.0,5.0,55,0.00,,,0.00,WeatherCatV1.11B39,2013-03-14 09:28:00,
2013-03-14 05:33:00,35.4,21.3,30.24,NW,309,1.0,7.0,56,0.00,,,0.00,WeatherCatV1.11B39,2013-03-14 09:33:00,
2013-03-14 05:38:00,35.3,21.2,30.24,NW,312,3.0,5.0,56,0.00,,,0.00,WeatherCatV1.11B39,2013-03-14 09:38:00,
2013-03-14 05:43:00,35.1,21.0,30.24,NW,314,0.0,8.0,56,0.00,,,0.00,WeatherCatV1.11B39,2013-03-14 09:43:00,
2013-03-14 05:48:00,34.9,21.2,30.24,NNW,331,2.0,7.0,57,0.00,,,0.00,WeatherCatV1.11B39,2013-03-14 09:48:00,
2013-03-14 05:53:00,34.8,21.1,30.25,NNW,331,4.0,6.0,57,0.00,,,0.00,WeatherCatV1.11B39,2013-03-14 09:53:00,
2013-03-14 05:58:00,34.6,21.0,30.25,NW,309,3.0,9.0,57,0.00,,,0.00,WeatherCatV1.11B39,2013-03-14 09:58:00,
2013-03-14 06:03:00,34.4,21.2,30.25,WNW,302,6.0,7.0,58,0.00,,,0.00,WeatherCatV1.11B39,2013-03-14 10:03:00,
2013-03-14 06:08:00,34.4,21.6,30.25,NNW,329,2.0,6.0,59,0.00,,,0.00,WeatherCatV1.11B39,2013-03-14 10:08:00,
2013-03-14 06:13:00,34.4,21.6,30.26,NW,313,4.0,7.0,59,0.00,,,0.00,WeatherCatV1.11B39,2013-03-14 10:13:00,
2013-03-14 06:18:00,34.3,21.5,30.26,NW,325,6.0,10.0,59,0.00,,,0.00,WeatherCatV1.11B39,2013-03-14 10:18:00,
2013-03-14 06:23:00,34.2,21.4,30.26,WNW,290,6.0,8.0,59,0.00,,,0.00,WeatherCatV1.11B39,2013-03-14 10:23:00,
2013-03-14 06:28:00,34.2,21.4,30.27,NW,310,3.0,5.0,59,0.00,,,0.00,WeatherCatV1.11B39,2013-03-14 10:28:00,
2013-03-14 06:33:00,34.1,21.3,30.27,NW,319,2.0,6.0,59,0.00,,,0.00,WeatherCatV1.11B39,2013-03-14 10:33:00,
2013-03-14 06:38:00,33.9,21.1,30.27,WNW,301,3.0,8.0,59,0.00,,,0.00,WeatherCatV1.11B39,2013-03-14 10:38:00,
2013-03-14 06:43:00,33.8,21.4,30.27,NW,323,4.0,7.0,60,0.00,,,0.00,WeatherCatV1.11B39,2013-03-14 10:43:00,
2013-03-14 06:48:00,33.6,21.2,30.27,NW,315,2.0,4.0,60,0.00,,,0.00,WeatherCatV1.11B39,2013-03-14 10:48:00,
2013-03-14 06:53:00,33.5,21.1,30.27,NW,319,4.0,5.0,60,0.00,,,0.00,WeatherCatV1.11B39,2013-03-14 10:53:00,
2013-03-14 06:58:00,33.4,21.4,30.27,WNW,302,0.0,5.0,61,0.00,,,0.00,WeatherCatV1.11B39,2013-03-14 10:58:00,
2013-03-14 07:03:00,33.2,21.2,30.27,NW,315,2.0,3.0,61,0.00,,,0.00,WeatherCatV1.11B39,2013-03-14 11:03:00,
2013-03-14 07:08:00,33.1,21.5,30.28,NW,306,4.0,7.0,62,0.00,,,0.00,WeatherCatV1.11B39,2013-03-14 11:08:00,
2013-03-14 07:13:00,33.0,21.4,30.28,NW,319,2.0,3.0,62,0.00,,,0.00,WeatherCatV1.11B39,2013-03-14 11:13:00,
2013-03-14 07:18:00,32.9,21.3,30.29,WNW,294,1.0,7.0,62,0.00,,,0.00,WeatherCatV1.11B39,2013-03-14 11:18:00,
2013-03-14 07:23:00,32.7,21.5,30.29,NW,311,6.0,7.0,63,0.00,,,0.00,WeatherCatV1.11B39,2013-03-14 11:23:00,
2013-03-14 07:28:00,32.6,21.4,30.29,NW,304,2.0,4.0,63,0.00,,,0.00,WeatherCatV1.11B39,2013-03-14 11:28:00,
2013-03-14 07:33:00,32.5,21.3,30.29,NW,316,3.0,3.0,63,0.00,,,0.00,WeatherCatV1.11B39,2013-03-14 11:33:00,
2013-03-14 07:38:00,32.4,21.2,30.29,NW,306,0.0,5.0,63,0.00,,,0.00,WeatherCatV1.11B39,2013-03-14 11:38:00,
2013-03-14 07:43:00,32.4,21.2,30.30,WNW,301,3.0,5.0,63,0.00,,,0.00,WeatherCatV1.11B39,2013-03-14 11:43:00,
2013-03-14 07:48:00,32.3,21.5,30.30,NW,318,3.0,3.0,64,0.00,,,0.00,WeatherCatV1.11B39,2013-03-14 11:48:00,
2013-03-14 07:53:00,32.2,21.4,30.30,NW,313,4.0,4.0,64,0.00,,,0.00,WeatherCatV1.11B39,2013-03-14 11:53:00,
2013-03-14 07:59:00,32.1,21.3,30.30,NNW,332,0.0,0.0,64,0.00,,,0.00,WeatherCatV1.11B39,2013-03-14 11:59:00,
2013-03-14 08:04:00,32.1,21.3,30.30,NW,306,0.0,5.0,64,0.00,,,0.00,WeatherCatV1.11B39,2013-03-14 12:04:00,
2013-03-14 08:09:00,32.1,21.3,30.30,NW,306,0.0,0.0,64,0.00,,,0.00,WeatherCatV1.11B39,2013-03-14 12:09:00,
2013-03-14 08:14:00,32.4,21.6,30.31,NNW,332,0.0,0.0,64,0.00,,,0.00,WeatherCatV1.11B39,2013-03-14 12:14:00,
2013-03-14 08:19:00,32.5,21.7,30.31,NNW,330,0.0,3.0,64,0.00,,,0.00,WeatherCatV1.11B39,2013-03-14 12:19:00,
2013-03-14 08:24:00,32.6,21.8,30.31,NNW,330,0.0,0.0,64,0.00,,,0.00,WeatherCatV1.11B39,2013-03-14 12:24:00,
2013-03-14 08:29:00,32.9,22.1,30.31,NNW,330,0.0,1.0,64,0.00,,,0.00,WeatherCatV1.11B39,2013-03-14 12:29:00,
2013-03-14 08:34:00,33.2,22.4,30.32,NNW,330,0.0,0.0,64,0.00,,,0.00,WeatherCatV1.11B39,2013-03-14 12:34:00,
2013-03-14 08:39:00,33.5,22.3,30.32,NNW,330,0.0,1.0,63,0.00,,,0.00,WeatherCatV1.11B39,2013-03-14 12:39:00,
2013-03-14 08:44:00,33.9,22.7,30.32,North,350,0.0,5.0,63,0.00,,,0.00,WeatherCatV1.11B39,2013-03-14 12:44:00,
2013-03-14 08:49:00,34.4,22.7,30.32,NNE,13,0.0,4.0,62,0.00,,,0.00,WeatherCatV1.11B39,2013-03-14 12:49:00,
2013-03-14 08:54:00,35.0,22.9,30.32,NNE,15,0.0,2.0,61,0.00,,,0.00,WeatherCatV1.11B39,2013-03-14 12:54:00,
2013-03-14 08:59:00,35.5,21.8,30.32,NE,53,0.0,10.0,57,0.00,,,0.00,WeatherCatV1.11B39,2013-03-14 12:59:00,
2013-03-14 09:04:00,36.1,22.4,30.33,NE,38,5.0,7.0,57,0.00,,,0.00,WeatherCatV1.11B39,2013-03-14 13:04:00,
2013-03-14 09:09:00,36.6,21.1,30.33,NNE,24,10.0,11.0,53,0.00,,,0.00,WeatherCatV1.11B39,2013-03-14 13:09:00,
2013-03-14 09:14:00,37.1,21.1,30.33,NNE,12,8.0,8.0,52,0.00,,,0.00,WeatherCatV1.11B39,2013-03-14 13:14:00,
2013-03-14 09:19:00,37.3,20.4,30.33,NNW,327,5.0,10.0,50,0.00,,,0.00,WeatherCatV1.11B39,2013-03-14 13:19:00,
2013-03-14 09:24:00,37.7,20.3,30.33,NNE,30,1.0,7.0,49,0.00,,,0.00,WeatherCatV1.11B39,2013-03-14 13:24:00,
2013-03-14 09:29:00,38.3,19.9,30.33,North,5,1.0,8.0,47,0.00,,,0.00,WeatherCatV1.11B39,2013-03-14 13:29:00,
2013-03-14 09:34:00,38.5,20.0,30.33,NE,36,1.0,5.0,47,0.00,,,0.00,WeatherCatV1.11B39,2013-03-14 13:34:00,
2013-03-14 09:39:00,38.7,19.2,30.33,NE,38,3.0,13.0,45,0.00,,,0.00,WeatherCatV1.11B39,2013-03-14 13:39:00,
2013-03-14 09:44:00,38.9,19.9,30.33,ENE,70,15.0,15.0,46,0.00,,,0.00,WeatherCatV1.11B39,2013-03-14 13:44:00,
2013-03-14 09:49:00,39.1,19.6,30.33,NE,55,8.0,8.0,45,0.00,,,0.00,WeatherCatV1.11B39,2013-03-14 13:49:00,
2013-03-14 09:54:00,39.4,19.8,30.34,ENE,66,7.0,12.0,45,0.00,,,0.00,WeatherCatV1.11B39,2013-03-14 13:54:00,
2013-03-14 09:59:00,39.5,19.4,30.34,NE,35,0.0,8.0,44,0.00,,,0.00,WeatherCatV1.11B39,2013-03-14 13:59:00,
2013-03-14 10:04:00,39.8,20.2,30.34,North,11,6.0,7.0,45,0.00,,,0.00,WeatherCatV1.11B39,2013-03-14 14:04:00,
2013-03-14 10:09:00,39.9,19.8,30.34,North,10,4.0,9.0,44,0.00,,,0.00,WeatherCatV1.11B39,2013-03-14 14:09:00,
2013-03-14 10:14:00,40.3,20.1,30.33,ENE,67,3.0,4.0,44,0.00,,,0.00,WeatherCatV1.11B39,2013-03-14 14:14:00,
2013-03-14 10:19:00,40.9,19.6,30.33,East,94,5.0,8.0,42,0.00,,,0.00,WeatherCatV1.11B39,2013-03-14 14:19:00,
2013-03-14 10:24:00,41.3,20.0,30.33,East,92,2.0,7.0,42,0.00,,,0.00,WeatherCatV1.11B39,2013-03-14 14:24:00,
2013-03-14 10:29:00,41.6,19.7,30.33,ENE,63,2.0,7.0,41,0.00,,,0.00,WeatherCatV1.11B39,2013-03-14 14:29:00,
2013-03-14 10:34:00,42.1,20.1,30.33,NW,312,0.0,5.0,41,0.00,,,0.00,WeatherCatV1.11B39,2013-03-14 14:34:00,
2013-03-14 10:39:00,42.6,20.0,30.33,North,9,5.0,9.0,40,0.00,,,0.00,WeatherCatV1.11B39,2013-03-14 14:39:00,
2013-03-14 10:44:00,42.6,18.8,30.33,WNW,296,2.0,5.0,38,0.00,,,0.00,WeatherCatV1.11B39,2013-03-14 14:44:00,
2013-03-14 10:49:00,42.1,19.5,30.33,NNW,347,0.0,0.0,40,0.00,,,0.00,WeatherCatV1.11B39,2013-03-14 14:49:00,
2013-03-14 10:54:00,42.8,20.2,30.33,NNE,18,3.0,6.0,40,0.00,,,0.00,WeatherCatV1.11B39,2013-03-14 14:54:00,
2013-03-14 10:59:00,43.4,19.5,30.33,NE,40,0.0,4.0,38,0.00,,,0.00,WeatherCatV1.11B39,2013-03-14 14:59:00,
2013-03-14 11:04:00,43.9,19.3,30.33,North,5,4.0,6.0,37,0.00,,,0.00,WeatherCatV1.11B39,2013-03-14 15:04:00,
2013-03-14 11:09:00,43.9,19.3,30.33,North,9,3.0,8.0,37,0.00,,,0.00,WeatherCatV1.11B39,2013-03-14 15:09:00,
2013-03-14 11:15:00,43.4,19.5,30.33,North,10,2.0,7.0,38,0.00,,,0.00,WeatherCatV1.11B39,2013-03-14 15:15:00,
2013-03-14 11:20:00,43.7,21.0,30.33,NNE,15,2.0,9.0,40,0.00,,,0.00,WeatherCatV1.11B39,2013-03-14 15:20:00,
2013-03-14 11:25:00,45.0,20.3,30.33,East,82,5.0,5.0,37,0.00,,,0.00,WeatherCatV1.11B39,2013-03-14 15:25:00,
2013-03-14 11:30:00,45.0,20.3,30.33,East,89,5.0,9.0,37,0.00,,,0.00,WeatherCatV1.11B39,2013-03-14 15:30:00,
2013-03-14 11:35:00,46.4,20.9,30.33,North,0,2.0,7.0,36,0.00,,,0.00,WeatherCatV1.11B39,2013-03-14 15:35:00,
2013-03-14 11:40:00,46.0,19.9,30.33,North,5,4.0,6.0,35,0.00,,,0.00,WeatherCatV1.11B39,2013-03-14 15:40:00,
2013-03-14 11:45:00,44.4,19.1,30.33,NW,311,1.0,9.0,36,0.00,,,0.00,WeatherCatV1.11B39,2013-03-14 15:45:00,
2013-03-14 11:50:00,45.0,20.9,30.33,NE,41,0.0,0.0,38,0.00,,,0.00,WeatherCatV1.11B39,2013-03-14 15:50:00,
2013-03-14 11:55:00,44.7,20.0,30.32,NNW,330,3.0,7.0,37,0.00,,,0.00,WeatherCatV1.11B39,2013-03-14 15:55:00,
2013-03-14 12:00:00,46.4,20.3,30.32,North,350,3.0,4.0,35,0.00,,,0.00,WeatherCatV1.11B39,2013-03-14 16:00:00,
2013-03-14 12:05:00,46.6,20.4,30.33,NNE,32,0.0,10.0,35,0.00,,,0.00,WeatherCatV1.11B39,2013-03-14 16:05:00,
2013-03-14 12:10:00,46.1,19.3,30.33,North,355,0.0,12.0,34,0.00,,,0.00,WeatherCatV1.11B39,2013-03-14 16:10:00,
2013-03-14 12:15:00,46.5,20.3,30.33,NE,55,10.0,11.0,35,0.00,,,0.00,WeatherCatV1.11B39,2013-03-14 16:15:00,
2013-03-14 12:20:00,47.1,20.2,30.33,North,351,9.0,10.0,34,0.00,,,0.00,WeatherCatV1.11B39,2013-03-14 16:20:00,
2013-03-14 12:25:00,47.0,19.4,30.33,NNW,332,5.0,8.0,33,0.00,,,0.00,WeatherCatV1.11B39,2013-03-14 16:25:00,
2013-03-14 12:30:00,47.1,21.5,30.33,NNW,332,5.0,10.0,36,0.00,,,0.00,WeatherCatV1.11B39,2013-03-14 16:30:00,
2013-03-14 12:35:00,47.3,21.7,30.32,West,261,3.0,8.0,36,0.00,,,0.00,WeatherCatV1.11B39,2013-03-14 16:35:00,
2013-03-14 12:40:00,48.2,22.5,30.32,NW,311,1.0,5.0,36,0.00,,,0.00,WeatherCatV1.11B39,2013-03-14 16:40:00,
2013-03-14 12:45:00,49.2,20.6,30.32,North,355,2.0,3.0,32,0.00,,,0.00,WeatherCatV1.11B39,2013-03-14 16:45:00,
2013-03-14 12:50:00,50.7,21.9,30.31,NW,304,5.0,9.0,32,0.00,,,0.00,WeatherCatV1.11B39,2013-03-14 16:50:00,
2013-03-14 12:55:00,50.0,20.6,30.31,NW,313,0.0,3.0,31,0.00,,,0.00,WeatherCatV1.11B39,2013-03-14 16:55:00,
2013-03-14 13:00:00,49.9,21.2,30.31,NNW,337,6.0,10.0,32,0.00,,,0.00,WeatherCatV1.11B39,2013-03-14 17:00:00,
2013-03-14 13:05:00,50.3,23.0,30.31,WNW,303,5.0,8.0,34,0.00,,,0.00,WeatherCatV1.11B39,2013-03-14 17:05:00,
2013-03-14 13:10:00,49.3,19.2,30.30,NNE,26,3.0,5.0,30,0.00,,,0.00,WeatherCatV1.11B39,2013-03-14 17:10:00,
2013-03-14 13:15:00,49.2,20.6,30.30,NE,42,0.0,4.0,32,0.00,,,0.00,WeatherCatV1.11B39,2013-03-14 17:15:00,
2013-03-14 13:20:00,50.3,20.8,30.30,NNW,331,4.0,6.0,31,0.00,,,0.00,WeatherCatV1.11B39,2013-03-14 17:20:00,
2013-03-14 13:25:00,51.2,21.6,30.30,NW,319,6.0,8.0,31,0.00,,,0.00,WeatherCatV1.11B39,2013-03-14 17:25:00,
2013-03-14 13:30:00,50.9,20.6,30.30,NNW,330,0.0,6.0,30,0.00,,,0.00,WeatherCatV1.11B39,2013-03-14 17:30:00,
2013-03-14 13:35:00,50.8,21.3,30.30,WSW,239,0.0,7.0,31,0.00,,,0.00,WeatherCatV1.11B39,2013-03-14 17:35:00,
2013-03-14 13:40:00,51.8,21.4,30.30,NW,320,6.0,8.0,30,0.00,,,0.00,WeatherCatV1.11B39,2013-03-14 17:40:00,
2013-03-14 13:45:00,51.6,19.6,30.30,WNW,294,5.0,7.0,28,0.00,,,0.00,WeatherCatV1.11B39,2013-03-14 17:45:00,
2013-03-14 13:50:00,51.7,19.7,30.29,NNW,333,0.0,8.0,28,0.00,,,0.00,WeatherCatV1.11B39,2013-03-14 17:50:00,
2013-03-14 13:56:00,51.4,21.0,30.29,NNW,329,0.0,8.0,30,0.00,,,0.00,WeatherCatV1.11B39,2013-03-14 17:56:00,
2013-03-14 14:01:00,51.6,21.2,30.29,NW,319,5.0,9.0,30,0.00,,,0.00,WeatherCatV1.11B39,2013-03-14 18:01:00,
2013-03-14 14:06:00,51.4,22.5,30.28,WSW,250,5.0,8.0,32,0.00,,,0.00,WeatherCatV1.11B39,2013-03-14 18:06:00,
2013-03-14 14:11:00,51.9,21.5,30.28,WNW,294,0.0,0.0,30,0.00,,,0.00,WeatherCatV1.11B39,2013-03-14 18:11:00,
2013-03-14 14:16:00,51.6,18.7,30.27,NNW,346,12.0,12.0,27,0.00,,,0.00,WeatherCatV1.11B39,2013-03-14 18:16:00,
2013-03-14 14:21:00,52.3,18.5,30.27,North,355,6.0,9.0,26,0.00,,,0.00,WeatherCatV1.11B39,2013-03-14 18:21:00,
2013-03-14 14:26:00,52.0,19.1,30.27,NNE,14,3.0,4.0,27,0.00,,,0.00,WeatherCatV1.11B39,2013-03-14 18:26:00,
2013-03-14 14:31:00,52.8,18.9,30.26,NNW,347,4.0,9.0,26,0.00,,,0.00,WeatherCatV1.11B39,2013-03-14 18:31:00,
2013-03-14 14:36:00,52.5,17.7,30.26,NW,319,4.0,6.0,25,0.00,,,0.00,WeatherCatV1.11B39,2013-03-14 18:36:00,
2013-03-14 14:41:00,53.5,19.5,30.26,WSW,253,5.0,7.0,26,0.00,,,0.00,WeatherCatV1.11B39,2013-03-14 18:41:00,
2013-03-14 14:46:00,53.4,19.4,30.25,WNW,300,0.0,4.0,26,0.00,,,0.00,WeatherCatV1.11B39,2013-03-14 18:46:00,
2013-03-14 14:51:00,53.6,19.6,30.25,NNE,17,4.0,9.0,26,0.00,,,0.00,WeatherCatV1.11B39,2013-03-14 18:51:00,
2013-03-14 14:56:00,53.2,20.1,30.24,ENE,61,3.0,8.0,27,0.00,,,0.00,WeatherCatV1.11B39,2013-03-14 18:56:00,
2013-03-14 15:01:00,54.0,20.8,30.24,West,267,3.0,3.0,27,0.00,,,0.00,WeatherCatV1.11B39,2013-03-14 19:01:00,
2013-03-14 15:06:00,54.2,20.1,30.24,NNW,327,3.0,9.0,26,0.00,,,0.00,WeatherCatV1.11B39,2013-03-14 19:06:00,
2013-03-14 15:11:00,54.4,19.3,30.24,NW,325,0.0,6.0,25,0.00,,,0.00,WeatherCatV1.11B39,2013-03-14 19:11:00,
2013-03-14 15:16:00,54.1,19.1,30.24,NNW,345,4.0,5.0,25,0.00,,,0.00,WeatherCatV1.11B39,2013-03-14 19:16:00,
2013-03-14 15:21:00,55.6,21.3,30.24,NE,53,4.0,4.0,26,0.00,,,0.00,WeatherCatV1.11B39,2013-03-14 19:21:00,
2013-03-14 15:26:00,54.8,19.7,30.24,North,0,3.0,9.0,25,0.00,,,0.00,WeatherCatV1.11B39,2013-03-14 19:26:00,
2013-03-14 15:31:00,55.5,21.2,30.23,North,355,3.0,4.0,26,0.00,,,0.00,WeatherCatV1.11B39,2013-03-14 19:31:00,
2013-03-14 15:36:00,55.4,22.0,30.23,NW,304,4.0,4.0,27,0.00,,,0.00,WeatherCatV1.11B39,2013-03-14 19:36:00,
2013-03-14 15:41:00,55.7,17.5,30.23,NW,320,7.0,7.0,22,0.00,,,0.00,WeatherCatV1.11B39,2013-03-14 19:41:00,
2013-03-14 15:46:00,54.9,17.8,30.23,West,269,0.0,6.0,23,0.00,,,0.00,WeatherCatV1.11B39,2013-03-14 19:46:00,
2013-03-14 15:51:00,55.8,19.6,30.22,NNW,331,1.0,6.0,24,0.00,,,0.00,WeatherCatV1.11B39,2013-03-14 19:51:00,
2013-03-14 15:56:00,55.7,19.5,30.22,NNW,336,0.0,1.0,24,0.00,,,0.00,WeatherCatV1.11B39,2013-03-14 19:56:00,
2013-03-14 16:01:00,55.7,20.4,30.22,NW,306,6.0,10.0,25,0.00,,,0.00,WeatherCatV1.11B39,2013-03-14 20:01:00,
2013-03-14 16:06:00,56.6,20.2,30.22,NNW,345,1.0,10.0,24,0.00,,,0.00,WeatherCatV1.11B39,2013-03-14 20:06:00,
2013-03-14 16:11:00,56.3,20.9,30.22,NNE,14,0.0,4.0,25,0.00,,,0.00,WeatherCatV1.11B39,2013-03-14 20:11:00,
2013-03-14 16:16:00,56.5,21.1,30.22,WNW,294,6.0,11.0,25,0.00,,,0.00,WeatherCatV1.11B39,2013-03-14 20:16:00,
2013-03-14 16:21:00,56.4,20.1,30.21,WNW,284,3.0,12.0,24,0.00,,,0.00,WeatherCatV1.11B39,2013-03-14 20:21:00,
2013-03-14 16:26:00,56.2,20.9,30.21,WNW,290,10.0,16.0,25,0.00,,,0.00,WeatherCatV1.11B39,2013-03-14 20:26:00,
2013-03-14 16:31:00,55.9,20.6,30.21,North,355,0.0,6.0,25,0.00,,,0.00,WeatherCatV1.11B39,2013-03-14 20:31:00,
2013-03-14 16:36:00,56.1,19.8,30.21,West,277,0.0,1.0,24,0.00,,,0.00,WeatherCatV1.11B39,2013-03-14 20:36:00,
2013-03-14 16:41:00,56.8,21.4,30.21,NW,320,7.0,7.0,25,0.00,,,0.00,WeatherCatV1.11B39,2013-03-14 20:41:00,
2013-03-14 16:46:00,56.0,19.7,30.21,NNW,329,3.0,11.0,24,0.00,,,0.00,WeatherCatV1.11B39,2013-03-14 20:46:00,
2013-03-14 16:51:00,56.5,20.2,30.20,NW,310,8.0,8.0,24,0.00,,,0.00,WeatherCatV1.11B39,2013-03-14 20:51:00,
2013-03-14 16:56:00,56.7,21.3,30.20,WSW,245,4.0,11.0,25,0.00,,,0.00,WeatherCatV1.11B39,2013-03-14 20:56:00,
2013-03-14 17:01:00,57.1,21.6,30.20,NNE,28,0.0,5.0,25,0.00,,,0.00,WeatherCatV1.11B39,2013-03-14 21:01:00,
2013-03-14 17:06:00,57.0,21.5,30.20,WNW,284,0.0,4.0,25,0.00,,,0.00,WeatherCatV1.11B39,2013-03-14 21:06:00,
2013-03-14 17:11:00,57.2,22.6,30.19,NW,326,6.0,6.0,26,0.00,,,0.00,WeatherCatV1.11B39,2013-03-14 21:11:00,
2013-03-14 17:16:00,56.3,21.9,30.20,WNW,301,10.0,11.0,26,0.00,,,0.00,WeatherCatV1.11B39,2013-03-14 21:16:00,
2013-03-14 17:22:00,56.0,22.5,30.19,WNW,297,7.0,7.0,27,0.00,,,0.00,WeatherCatV1.11B39,2013-03-14 21:22:00,
2013-03-14 17:27:00,56.0,21.6,30.20,WNW,291,0.0,4.0,26,0.00,,,0.00,WeatherCatV1.11B39,2013-03-14 21:27:00,
2013-03-14 17:32:00,56.4,22.0,30.20,WNW,295,6.0,9.0,26,0.00,,,0.00,WeatherCatV1.11B39,2013-03-14 21:32:00,
2013-03-14 17:37:00,56.3,21.9,30.20,West,272,6.0,9.0,26,0.00,,,0.00,WeatherCatV1.11B39,2013-03-14 21:37:00,
2013-03-14 17:42:00,56.1,21.7,30.20,NW,304,6.0,12.0,26,0.00,,,0.00,WeatherCatV1.11B39,2013-03-14 21:42:00,
2013-03-14 17:47:00,55.9,21.5,30.20,North,5,2.0,14.0,26,0.00,,,0.00,WeatherCatV1.11B39,2013-03-14 21:47:00,
2013-03-14 17:52:00,55.6,21.3,30.20,NW,306,5.0,9.0,26,0.00,,,0.00,WeatherCatV1.11B39,2013-03-14 21:52:00,
2013-03-14 17:57:00,55.5,22.1,30.20,WNW,294,0.0,5.0,27,0.00,,,0.00,WeatherCatV1.11B39,2013-03-14 21:57:00,
2013-03-14 18:02:00,55.5,22.9,30.20,NNW,336,8.0,8.0,28,0.00,,,0.00,WeatherCatV1.11B39,2013-03-14 22:02:00,
2013-03-14 18:07:00,55.6,23.0,30.20,NW,305,9.0,9.0,28,0.00,,,0.00,WeatherCatV1.11B39,2013-03-14 22:07:00,
2013-03-14 18:12:00,55.6,22.2,30.20,NNW,333,1.0,4.0,27,0.00,,,0.00,WeatherCatV1.11B39,2013-03-14 22:12:00,
2013-03-14 18:17:00,55.5,22.9,30.20,WNW,302,0.0,8.0,28,0.00,,,0.00,WeatherCatV1.11B39,2013-03-14 22:17:00,
2013-03-14 18:22:00,55.4,22.0,30.20,NW,313,8.0,9.0,27,0.00,,,0.00,WeatherCatV1.11B39,2013-03-14 22:22:00,
2013-03-14 18:27:00,55.4,21.1,30.20,NNW,333,1.0,8.0,26,0.00,,,0.00,WeatherCatV1.11B39,2013-03-14 22:27:00,
2013-03-14 18:32:00,55.3,21.9,30.20,North,0,1.0,10.0,27,0.00,,,0.00,WeatherCatV1.11B39,2013-03-14 22:32:00,
2013-03-14 18:37:00,55.1,21.7,30.20,WNW,293,3.0,8.0,27,0.00,,,0.00,WeatherCatV1.11B39,2013-03-14 22:37:00,
2013-03-14 18:42:00,54.9,21.6,30.20,NW,315,3.0,6.0,27,0.00,,,0.00,WeatherCatV1.11B39,2013-03-14 22:42:00,
2013-03-14 18:47:00,54.8,22.3,30.20,NW,314,1.0,1.0,28,0.00,,,0.00,WeatherCatV1.11B39,2013-03-14 22:47:00,
2013-03-14 18:52:00,54.5,21.2,30.20,WNW,300,4.0,12.0,27,0.00,,,0.00,WeatherCatV1.11B39,2013-03-14 22:52:00,
2013-03-14 18:57:00,54.4,21.1,30.20,WNW,283,4.0,6.0,27,0.00,,,0.00,WeatherCatV1.11B39,2013-03-14 22:57:00,
2013-03-14 19:02:00,54.3,21.9,30.20,NW,319,1.0,3.0,28,0.00,,,0.00,WeatherCatV1.11B39,2013-03-14 23:02:00,
2013-03-14 19:07:00,54.1,25.6,30.20,NW,311,1.0,5.0,33,0.00,,,0.00,WeatherCatV1.11B39,2013-03-14 23:07:00,
2013-03-14 19:12:00,53.6,25.2,30.20,NW,306,4.0,5.0,33,0.00,,,0.00,WeatherCatV1.11B39,2013-03-14 23:12:00,
2013-03-14 19:17:00,53.1,23.3,30.20,NW,306,1.0,4.0,31,0.00,,,0.00,WeatherCatV1.11B39,2013-03-14 23:17:00,
2013-03-14 19:22:00,52.7,22.1,30.20,NW,306,0.0,1.0,30,0.00,,,0.00,WeatherCatV1.11B39,2013-03-14 23:22:00,
2013-03-14 19:27:00,52.3,24.1,30.20,NW,306,0.0,0.0,33,0.00,,,0.00,WeatherCatV1.11B39,2013-03-14 23:27:00,
2013-03-14 19:32:00,51.8,24.3,30.19,NW,306,0.0,0.0,34,0.00,,,0.00,WeatherCatV1.11B39,2013-03-14 23:32:00,
2013-03-14 19:37:00,51.2,26.5,30.20,NW,306,0.0,1.0,38,0.00,,,0.00,WeatherCatV1.11B39,2013-03-14 23:37:00,
2013-03-14 19:42:00,50.5,25.2,30.20,NW,306,0.0,0.0,37,0.00,,,0.00,WeatherCatV1.11B39,2013-03-14 23:42:00,
2013-03-14 19:47:00,49.8,25.2,30.20,NW,306,0.0,0.0,38,0.00,,,0.00,WeatherCatV1.11B39,2013-03-14 23:47:00,
2013-03-14 19:52:00,49.1,25.2,30.20,NW,306,0.0,0.0,39,0.00,,,0.00,WeatherCatV1.11B39,2013-03-14 23:52:00,
2013-03-14 19:57:00,48.4,24.6,30.20,NW,306,0.0,0.0,39,0.00,,,0.00,WeatherCatV1.11B39,2013-03-14 23:57:00,
2013-03-14 20:02:00,47.9,24.8,30.20,NW,306,0.0,0.0,40,0.00,,,0.00,WeatherCatV1.11B39,2013-03-15 00:02:00,
2013-03-14 20:07:00,47.5,25.0,30.20,NW,306,0.0,0.0,41,0.00,,,0.00,WeatherCatV1.11B39,2013-03-15 00:07:00,
2013-03-14 20:12:00,47.0,25.1,30.20,NW,306,2.0,2.0,42,0.00,,,0.00,WeatherCatV1.11B39,2013-03-15 00:12:00,
2013-03-14 20:17:00,46.7,25.4,30.20,NW,306,0.0,1.0,43,0.00,,,0.00,WeatherCatV1.11B39,2013-03-15 00:17:00,
2013-03-14 20:22:00,46.5,25.8,30.20,NW,306,0.0,0.0,44,0.00,,,0.00,WeatherCatV1.11B39,2013-03-15 00:22:00,
2013-03-14 20:27:00,46.2,27.6,30.20,NW,306,0.0,0.0,48,0.00,,,0.00,WeatherCatV1.11B39,2013-03-15 00:27:00,
2013-03-14 20:32:00,45.9,25.8,30.19,NW,306,0.0,0.0,45,0.00,,,0.00,WeatherCatV1.11B39,2013-03-15 00:32:00,
2013-03-14 20:37:00,45.6,27.6,30.20,NW,306,1.0,1.0,49,0.00,,,0.00,WeatherCatV1.11B39,2013-03-15 00:37:00,
2013-03-14 20:42:00,45.2,25.7,30.20,NW,306,2.0,2.0,46,0.00,,,0.00,WeatherCatV1.11B39,2013-03-15 00:42:00,
2013-03-14 20:47:00,44.9,25.9,30.19,NW,306,2.0,2.0,47,0.00,,,0.00,WeatherCatV1.11B39,2013-03-15 00:47:00,
2013-03-14 20:52:00,44.6,26.6,30.19,NW,306,0.0,2.0,49,0.00,,,0.00,WeatherCatV1.11B39,2013-03-15 00:52:00,
2013-03-14 20:57:00,44.4,27.9,30.19,NW,306,0.0,2.0,52,0.00,,,0.00,WeatherCatV1.11B39,2013-03-15 00:57:00,
2013-03-14 21:02:00,44.2,27.7,30.19,NW,306,2.0,4.0,52,0.00,,,0.00,WeatherCatV1.11B39,2013-03-15 01:02:00,
2013-03-14 21:07:00,43.9,27.0,30.19,NW,306,1.0,2.0,51,0.00,,,0.00,WeatherCatV1.11B39,2013-03-15 01:07:00,
2013-03-14 21:12:00,43.7,27.2,30.19,NW,306,2.0,2.0,52,0.00,,,0.00,WeatherCatV1.11B39,2013-03-15 01:12:00,
2013-03-14 21:17:00,43.5,27.5,30.19,NW,306,2.0,3.0,53,0.00,,,0.00,WeatherCatV1.11B39,2013-03-15 01:17:00,
2013-03-14 21:22:00,43.2,28.1,30.19,NW,306,1.0,2.0,55,0.00,,,0.00,WeatherCatV1.11B39,2013-03-15 01:22:00,
2013-03-14 21:27:00,42.9,28.3,30.20,NW,306,1.0,2.0,56,0.00,,,0.00,WeatherCatV1.11B39,2013-03-15 01:27:00,
2013-03-14 21:32:00,42.7,28.1,30.20,NW,306,2.0,3.0,56,0.00,,,0.00,WeatherCatV1.11B39,2013-03-15 01:32:00,
2013-03-14 21:37:00,42.4,27.4,30.20,NW,305,0.0,4.0,55,0.00,,,0.00,WeatherCatV1.11B39,2013-03-15 01:37:00,
2013-03-14 21:42:00,42.2,28.1,30.19,NW,305,0.0,3.0,57,0.00,,,0.00,WeatherCatV1.11B39,2013-03-15 01:42:00,
2013-03-14 21:48:00,42.0,28.3,30.19,NW,305,0.0,2.0,58,0.00,,,0.00,WeatherCatV1.11B39,2013-03-15 01:48:00,
2013-03-14 21:53:00,41.8,28.5,30.20,NW,305,0.0,2.0,59,0.00,,,0.00,WeatherCatV1.11B39,2013-03-15 01:53:00,
2013-03-14 21:58:00,41.5,28.3,30.20,West,261,0.0,3.0,59,0.00,,,0.00,WeatherCatV1.11B39,2013-03-15 01:58:00,
2013-03-14 22:03:00,41.3,28.1,30.21,West,261,0.0,3.0,59,0.00,,,0.00,WeatherCatV1.11B39,2013-03-15 02:03:00,
2013-03-14 22:08:00,41.0,28.2,30.21,West,261,0.0,1.0,60,0.00,,,0.00,WeatherCatV1.11B39,2013-03-15 02:08:00,
2013-03-14 22:13:00,40.9,27.7,30.21,West,261,0.0,3.0,59,0.00,,,0.00,WeatherCatV1.11B39,2013-03-15 02:13:00,
2013-03-14 22:18:00,41.0,28.2,30.21,West,261,0.0,0.0,60,0.00,,,0.00,WeatherCatV1.11B39,2013-03-15 02:18:00,
2013-03-14 22:23:00,41.0,29.0,30.22,West,261,0.0,2.0,62,0.00,,,0.00,WeatherCatV1.11B39,2013-03-15 02:23:00,
2013-03-14 22:28:00,41.1,28.3,30.22,West,261,0.0,3.0,60,0.00,,,0.00,WeatherCatV1.11B39,2013-03-15 02:28:00,
2013-03-14 22:33:00,41.1,28.3,30.21,West,261,0.0,1.0,60,0.00,,,0.00,WeatherCatV1.11B39,2013-03-15 02:33:00,
2013-03-14 22:38:00,41.0,28.2,30.22,West,261,0.0,1.0,60,0.00,,,0.00,WeatherCatV1.11B39,2013-03-15 02:38:00,
2013-03-14 22:43:00,40.9,28.1,30.22,West,261,0.0,1.0,60,0.00,,,0.00,WeatherCatV1.11B39,2013-03-15 02:43:00,
2013-03-14 22:48:00,40.8,28.0,30.22,West,261,0.0,2.0,60,0.00,,,0.00,WeatherCatV1.11B39,2013-03-15 02:48:00,
2013-03-14 22:53:00,40.7,28.3,30.22,West,261,0.0,0.0,61,0.00,,,0.00,WeatherCatV1.11B39,2013-03-15 02:53:00,
2013-03-14 22:58:00,40.5,28.5,30.22,West,261,0.0,0.0,62,0.00,,,0.00,WeatherCatV1.11B39,2013-03-15 02:58:00,
2013-03-14 23:03:00,40.2,28.6,30.22,West,261,0.0,0.0,63,0.00,,,0.00,WeatherCatV1.11B39,2013-03-15 03:03:00,
2013-03-14 23:08:00,40.0,28.4,30.21,West,261,0.0,0.0,63,0.00,,,0.00,WeatherCatV1.11B39,2013-03-15 03:08:00,
2013-03-14 23:13:00,39.6,28.4,30.21,West,261,0.0,0.0,64,0.00,,,0.00,WeatherCatV1.11B39,2013-03-15 03:13:00,
2013-03-14 23:18:00,39.3,28.5,30.22,West,263,2.0,4.0,65,0.00,,,0.00,WeatherCatV1.11B39,2013-03-15 03:18:00,
2013-03-14 23:23:00,39.2,27.7,30.22,WNW,289,4.0,7.0,63,0.00,,,0.00,WeatherCatV1.11B39,2013-03-15 03:23:00,
2013-03-14 23:28:00,39.8,25.4,30.22,WNW,292,2.0,11.0,56,0.00,,,0.00,WeatherCatV1.11B39,2013-03-15 03:28:00,
2013-03-14 23:33:00,40.7,24.9,30.22,West,281,4.0,7.0,53,0.00,,,0.00,WeatherCatV1.11B39,2013-03-15 03:33:00,
2013-03-14 23:38:00,42.1,23.8,30.22,WNW,302,5.0,5.0,48,0.00,,,0.00,WeatherCatV1.11B39,2013-03-15 03:38:00,
2013-03-14 23:43:00,43.5,23.6,30.22,WNW,294,8.0,9.0,45,0.00,,,0.00,WeatherCatV1.11B39,2013-03-15 03:43:00,
2013-03-14 23:48:00,44.6,23.5,30.23,NW,326,7.0,8.0,43,0.00,,,0.00,WeatherCatV1.11B39,2013-03-15 03:48:00,
2013-03-14 23:53:00,45.4,22.5,30.22,WNW,295,6.0,8.0,40,0.00,,,0.00,WeatherCatV1.11B39,2013-03-15 03:53:00,
2013-03-14 23:58:00,46.1,23.1,30.22,WNW,289,0.0,8.0,40,0.00,,,0.00,WeatherCatV1.11B39,2013-03-15 03:58:00,